Regional Weather Roundup
Issued by NWS

Home | Current Version | Previous Version | Text Only | Print | Product List | Glossary Off
Versions: 1 2 3 4 5 6 7 8 9 10 11 12 13 14 15 16 17 18 19 20 21 22 23 24 25 26 27 28 29 30 31 32 33 34 35 36 37 38 39 40 41 42 43 44 45 46 47 48 49 50

755
ASUS44 KJAN 160910
RWRMS

MISSISSIPPI HOURLY WEATHER ROUNDUP
NATIONAL WEATHER SERVICE JACKSON MS
400 AM CDT WED APR 16 2014

NOTE: "FAIR: INDICATES FEW OR NO CLOUDS BELOW 12,000 FEET WITH NO
SIGNIFICANT WEATHER AND/OR OBSTRUCTIONS TO VISIBILITY.

MSZ001>002-007>008-010>013-018>021-025>028-034>036-161000-
NORTHWEST MISSISSIPPI

CITY           SKY/WX    TMP DP  RH WIND       PRES   REMARKS
CLARKSDALE       N/A     36  32  87 CALM      30.25R
CLEVELAND      FAIR      37  35  91 CALM      30.23S
GREENWOOD      CLEAR     37  29  72 E7        30.24R WCI  32
GREENVILLE     CLEAR     41  31  67 E7        30.22S
GRENADA        FAIR      36  28  75 NE5       30.24S WCI  32
OLIVE BRANCH   CLEAR     32  32 100 E3        30.25S
OXFORD         FAIR      32  25  74 E7        30.25S WCI  26
TUNICA         SUNNY     36  30  80 CALM      30.25S
$$

MSZ003>006-009-014>017-022>024-029>033-037>039-161000-
NORTHEAST MISSISSIPPI

CITY           SKY/WX    TMP DP  RH WIND       PRES   REMARKS
BELMONT        FAIR      32  26  77 NE3       30.24S
COLUMBUS AFB   CLEAR     36  28  73 N1        30.24R
CORINTH        FAIR      32  28  86 CALM      30.25S
GOLDN TRIANGLE CLEAR     36  27  69 NE6       30.26R WCI  31
STARKVILLE     FAIR      34  32  93 CALM      30.23S
TUPELO         CLEAR     32  27  81 NE6       30.24S WCI  26
$$

MSZ040-058-161000-
CENTRAL MISSISSIPPI

CITY           SKY/WX    TMP DP  RH WIND       PRES   REMARKS
JACKSON INTL   CLEAR     39  30  70 NE5       30.21S
JACKSON HAWKNS CLEAR     40  29  64 NE6       30.21S
MERIDIAN KEY   CLEAR     36  30  79 NE7       30.20S WCI  30
MERIDIAN NAS   CLEAR     37  30  75 NE5       30.21S WCI  33
RAYMOND        FAIR      34  30  86 MISG      30.21F
VICKSBURG      CLEAR     43  32  65 NE9       30.21F
$$

MSZ059>079-161000-
SOUTH MISSISSIPPI

CITY           SKY/WX    TMP DP  RH WIND       PRES   REMARKS
BROOKHAVEN     FAIR      36  32  87 N6        30.19F WCI  31
COLUMBIA       FAIR      36  34  93 MISG      30.19R
HATTIESBURG    CLEAR     38  33  82 N3        30.20R
MCCOMB         CLEAR     39  32  76 NE8       30.18S WCI  33
NATCHEZ          N/A     39  30  70 E6        30.18R WCI  35
PINE BELT      CLEAR     36  30  80 N7        30.19S WCI  30
$$

MSZ080>082-161000-
COASTAL MISSISSIPPI

CITY           SKY/WX    TMP DP  RH WIND       PRES   REMARKS
BILOXI         CLEAR     42  35  75 N6        30.17R
PASCAGOULA     CLEAR     40  35  83 CALM      30.17R
GULFPORT       CLEAR     43  34  70 N5        30.17R
$$



USA.gov is the U.S. government's official web portal to all federal, state and local government web resources and services.